Location: Gallinara
(44.0333°N, 8.2333°E)
Time: 01:22:07
(UTC+00:00)

Meteor 1-18 Rocket - Pass Details

Date: 25 September 2020
Orbit: 838 x 908 km, 81.2° (Epoch: 31 October)

Event Time Altitude Azimuth Distance (km) Brightness Sun altitude
Rises 04:19:21 0° 190° (S) 3,375 7.1 -11.3°
Reaches altitude 10° 04:21:44 10° 192° (SSW) 2,445 6.4 -10.9°
Maximum altitude 04:27:17 83° 279° (W) 852 4.2 -9.9°
Drops below altitude 10° 04:32:54 10° 9° (N) 2,479 6.9 -8.9°
Sets 04:35:21 0° 10° (N) 3,426 7.6 -8.5°
